Location: Aboncourt
(47.7710°N, 5.9826°E)
Time: 18:54:07
(UTC+00:00)

SL-8 Rocket - Pass Details

Date: 05 July 2020
Orbit: 958 x 990 km, 82.9° (Epoch: 12 August)

Event Time Altitude Azimuth Distance (km) Brightness Sun altitude
Exits shadow 23:31:01 29° 206° (SSW) 1,673 4.7 -19.5°
Maximum altitude 23:34:14 67° 281° (W) 1,037 4.1 -19.6°
Drops below altitude 10° 23:40:24 10° 5° (N) 2,702 7.6 -19.6°
Sets 23:42:56 0° 8° (N) 3,652 8.6 -19.6°
